CAPE
0 0 0 0 0 0 0 0 0 0 0 0 0 0 0 0 0 0 0 0 0 0
0 0 0 0 0 0 0 0 0 0 0 0 0 0 0 0 0 0 0 0 0 0
0 0 0 0 0 0 0 0 0 0 0 0 0 0 0 0 0 0 0 0 0 0
0 0 0 0 0 0 0 0 0 0 0 0 0 0 0 0 0 0 0 0 0 0
0 0 0 0 0 0 0 0 0 0 0 0 0 0 0 0 0 0 0 0 0 0
0 0 0 0 0 0 0 0 0 0 0 0 0 0 0 0 0 0 0 0 0 0
0 0 0 0 0 0 0 0 0 0 0 0 0 0 0 0 0 0 0 0 0 0
0 0 0 0 0 0 0 0 0 0 0 0 0 0 0 0 0 0 0 0 0 0
0 0 0 0 0 0 0 0 0 0 0 0 0 0 0 0 0 0 0 0 0 0
0 0 0 0 0 0 0 0 0 0 0 0 0 0 0 0 0 0 0 0 0 0
0 0 0 0 0 0 0 0 0 0 0 0 0 0 0 0 0 0 0 0 0 0
0 0 0 0 0 0 0 0 0 0 0 0 0 0 0 0 0 0 0 0 0 0
0 0 0 0 0 0 0 0 0 0 0 0 0 0 0 0 0 0 0 0 0 2
0 0 0 0 0 0 0 0 0 0 0 0 0 0 0 0 0 0 0 0 1 1
CIN
0 0 0 0 0 0 0 0 0 0 0 0 0 0 0 0 0 0 0 0 0 0
0 0 0 0 0 0 0 0 0 0 0 0 0 0 0 0 0 0 0 0 0 0
0 0 0 0 0 0 0 0 0 0 0 0 0 0 0 0 0 0 0 0 0 0
0 0 0 0 0 0 0 0 0 0 0 0 0 0 0 0 0 0 0 0 0 0
0 0 0 0 0 0 0 0 0 0 0 0 0 0 0 0 0 0 0 0 0 0
0 0 0 0 0 0 0 0 0 0 0 0 0 0 0 0 0 0 0 0 0 0
0 0 0 0 0 0 0 0 0 0 0 0 0 0 0 0 0 0 0 0 0 0
0 0 0 0 0 0 0 0 0 0 0 0 0 0 0 0 0 0 0 0 0 0
0 0 0 0 0 0 0 0 0 0 0 0 0 0 0 0 0 0 0 0 0 0
0 0 0 0 0 0 0 0 0 0 0 0 0 0 0 0 0 0 0 0 0 0
0 0 0 0 0 0 0 0 0 0 0 0 0 0 0 0 0 0 0 0 0 0
0 0 0 0 0 0 0 0 0 0 0 0 0 0 0 0 0 0 0 0 0 -2
0 0 0 0 0 0 0 0 0 0 0 0 0 0 0 0 0 0 0 0 -1 -2
0 0 0 0 0 0 0 0 0 0 0 0 0 0 0 0 0 0 0 0 -3 -2
Wind_Speed
9 9 7 7 6 5 5 7 7 11 14 16 18 21 24 26 28 28 28 29 29 31
9 8 7 6 4 4 4 6 8 11 14 17 20 23 25 27 29 29 29 30 31 33
9 7 7 5 4 3 4 6 9 12 15 18 21 24 26 28 29 30 31 32 33 34
9 6 6 4 3 4 5 8 11 13 17 20 23 25 27 29 31 32 33 33 34 36
8 6 5 4 3 4 7 10 12 15 19 22 25 27 29 31 32 33 33 34 35 37
7 6 5 3 3 6 8 11 14 17 21 24 26 28 30 32 32 33 33 34 36 37
6 5 3 3 4 7 10 13 16 20 22 25 28 30 31 32 33 34 34 33 34 36
4 2 1 3 6 9 12 15 19 22 24 27 29 30 33 33 34 34 34 34 35 36
2 1 3 5 8 12 15 18 21 24 26 28 30 31 32 34 34 34 35 37 37 38
1 3 5 8 11 14 17 20 23 25 27 29 30 31 33 34 34 35 36 37 38 40
2 4 7 10 13 17 19 21 24 26 28 29 30 32 34 34 34 35 36 37 38 40
4 6 9 13 15 18 20 22 25 26 28 30 30 32 34 36 36 36 37 37 38 39
7 9 11 14 16 19 21 23 25 27 28 29 31 33 35 37 36 39 40 39 38 39
9 11 13 15 17 19 22 24 26 28 29 30 32 34 36 37 37 38 40 40 41 39
Wind_Direction
220 216 205 202 210 239 269 293 315 326 331 336 338 339 339 339 338 338 337 335 333 331
212 210 201 204 211 249 285 306 320 327 331 334 335 337 337 336 337 337 336 334 332 330
210 213 194 195 221 256 294 314 323 328 331 333 334 335 335 336 337 335 334 333 331 331
214 205 200 209 232 276 307 319 325 329 330 331 333 334 334 335 334 333 332 332 332 331
211 203 208 224 261 297 314 324 328 329 330 331 332 333 333 332 333 332 332 332 331 331
199 205 217 240 286 312 323 327 329 330 330 331 332 332 332 332 332 332 332 331 331 331
205 210 227 273 309 322 327 327 329 330 331 332 332 332 333 333 333 332 332 332 331 331
201 205 256 307 322 327 327 328 330 330 331 332 333 334 333 334 333 333 332 332 331 331
192 226 304 318 322 325 327 328 329 330 331 332 334 335 336 335 334 333 332 331 332 331
231 300 316 319 323 326 326 328 329 332 333 333 335 337 336 336 335 334 333 333 332 331
316 320 322 325 325 327 329 330 331 333 335 336 337 338 338 337 336 335 334 334 333 332
332 328 327 326 329 331 332 333 334 336 337 337 338 340 339 339 337 336 335 335 335 334
335 333 333 336 335 336 337 337 338 338 339 339 340 340 340 340 339 336 336 337 336 336
349 347 345 344 343 341 340 340 339 338 340 340 341 341 341 341 340 338 337 337 337 337